Notices

What's New in latest Release from April 7th, 2021:

- Updated Glossary, including Speed of Maximum Gust, and Total Hourly Precipitation

- Updated national and regional climate services offices contacts and prices information

- Addition of station inventory lists for 1981-2010, 1971-2000, and 1961-1990 Normals.

If you haven't already, please take our survey and provide feedback about our website: https://eccc.sondage-survey.ca/f/LanguageSelection.aspx?s=442ca660-fcf1-47c0-95a9-59707d6fd709

Hourly Data Report for May 14, 2021

OTTAWA INTL A
ONTARIO
Current Station Operator: NAVCAN

45°19'00.000" N
75°40'00.000" W
114.90 m
6106001
71628
YOW

Download Data

Hourly Data (May 2021)
Hourly Data Report for May 14, 2021
TIME
LST
Temp Definition
°C
Dew Point Definition
°C
Rel Hum Definition
%
Precip. Amount Definition
mm

Wind Dir Definition
10's deg

Wind Spd Definition
km/h
Visibility Definition
km
Stn Press Definition
kPa
Hmdx Definition


Wind Chill Definition


Weather Definition


00:00 10.5 2.8 59   18 13 24.1 100.78     LegendNANA
01:00 9.6 3.6 66   20 8 24.1 100.77     Mainly Clear
02:00 10.2 4.1 66   25 9 24.1 100.76     LegendNANA
03:00 9.4 3.8 68   30 7 24.1 100.79     LegendNANA
04:00 6.7 3.0 77   28 12 24.1 100.81     Mainly Clear
05:00 8.4 2.4 66   27 9 24.1 100.81     LegendNANA
06:00 10.9 3.1 59   29 16 24.1 100.85     LegendNANA
07:00 13.3 2.4 47   28 18 24.1 100.88     Clear
08:00 15.2 1.6 39   28 17 24.1 100.90     LegendNANA
09:00 17.2 1.8 35   28 14 24.1 100.88     LegendNANA
10:00 19.4 3.2 34   29 14 24.1 100.87     Clear
11:00 21.8 0.8 25   28 22 24.1 100.83     LegendNANA
12:00 22.4 -0.9 21   30 26 24.1 100.76     LegendNANA
13:00 21.8 -0.8 22   26 16 24.1 100.70     Mostly Cloudy
14:00 23.2 -1.3 19   24 16 24.1 100.64     LegendNANA
15:00 23.7 -0.3 20   24 18 24.1 100.59     LegendNANA
16:00 23.6 -3.4 16   26 10 24.1 100.56     Mainly Clear
17:00 21.4 -1.0 22   27 4 24.1 100.54     LegendNANA
18:00 21.4 1.5 26   18 18 24.1 100.51     LegendNANA
19:00 19.1 0.6 29   19 15 24.1 100.55     Mainly Clear
20:00 16.9 0.2 32   20 14 24.1 100.61     LegendNANA
21:00 16.1 0.7 35   21 16 24.1 100.66     LegendNANA
22:00 14.5 0.8 39   21 11 24.1 100.66     Mainly Clear
23:00 13.1 0.8 43   23 10 24.1 100.66     LegendNANA

Notes on Data Quality.

Legend

  • E = Estimated
  • M = Missing
  • NA = Not Available*
  • [empty] = Indicates an unobserved value
Date modified: